Location: Étouvelles
(49.5207°N, 3.5808°E)
Time: 08:02:16
(UTC+00:00)

Meteor PRIRODA - Pass Details

Date: 03 February 2023
Orbit: 473 x 489 km, 97.6° (Epoch: 30 March)

Event Time Altitude Azimuth Distance (km) Brightness Sun altitude
Rises 17:35:33 0° 174° (S) 2,510 7.3 -8.7°
Reaches altitude 10° 17:37:37 10° 178° (S) 1,638 6.4 -9.0°
Maximum altitude 17:41:05 59° 259° (WSW) 555 4.2 -9.5°
Drops below altitude 10° 17:44:36 10° 340° (NNW) 1,656 6.4 -10.1°
Sets 17:46:42 0° 344° (NNW) 2,542 7.3 -10.4°
